Temp
64 64 64 64 64 64 64 64 64 64 64 64 64 64 64 64 64 62 63 69 69 71 69 67 66 64 64 61 60 56 50 46 49 49 52 56 54 55 57 58 55 58 57 58 65
63 64 63 64 63 63 64 63 63 63 63 64 64 64 64 63 63 61 70 72 72 71 68 66 62 63 59 58 57 54 48 51 54 53 53 57 54 58 54 54 53 54 56 59 62
63 63 63 63 63 63 63 63 62 63 63 63 63 63 63 61 61 64 71 72 71 69 67 67 66 62 55 54 54 51 51 56 55 56 57 58 53 56 55 50 57 59 58 58 59
63 63 63 62 62 63 63 62 62 62 63 63 63 63 62 60 52 63 70 71 71 66 66 65 63 56 53 53 56 52 54 57 58 56 57 57 57 53 55 59 58 61 60 58 59
62 61 61 61 62 62 62 62 62 62 62 63 63 63 61 55 60 66 68 68 66 65 65 63 59 57 55 55 56 51 54 55 56 55 54 56 53 55 55 60 57 58 58 58 60
61 60 60 60 61 61 61 62 62 62 62 63 63 63 59 54 65 68 65 64 66 64 63 64 62 61 56 56 54 55 55 53 54 54 54 52 50 51 54 54 55 57 56 57 58
60 59 59 60 60 61 61 61 62 62 62 63 63 63 58 58 64 65 67 64 65 65 62 62 62 60 57 54 55 54 50 50 51 53 52 53 50 52 53 52 53 55 54 55 56
59 59 59 59 60 60 61 61 61 61 62 63 63 59 55 64 63 65 65 63 65 65 64 64 64 60 57 56 54 48 47 43 49 51 50 51 47 52 52 51 54 52 51 53 55
59 58 59 59 59 60 60 61 61 62 62 63 58 56 53 65 61 63 64 63 63 63 63 68 63 54 53 48 43 42 38 40 47 51 49 48 46 52 51 52 52 52 53 54 54
58 58 59 59 59 59 60 61 62 61 62 63 64 54 56 56 60 62 62 64 60 60 60 58 51 47 44 43 38 39 37 39 41 48 46 44 47 52 53 51 52 51 52 53 53
58 58 59 59 59 60 58 55 54 52 53 53 54 55 56 58 61 59 62 61 59 57 48 48 46 42 46 47 44 43 40 39 43 48 45 45 44 49 53 50 50 51 51 52 53
58 59 59 59 60 60 55 51 53 55 49 55 54 56 59 59 54 56 62 55 53 46 47 45 41 50 50 48 47 43 41 39 44 46 46 42 46 49 50 52 53 53 53 52 52
55 55 57 59 59 57 54 55 58 55 49 51 55 55 56 59 54 54 60 54 49 45 44 43 47 50 50 44 45 40 40 39 43 42 42 40 41 43 49 48 52 52 51 52 53
53 54 54 56 55 57 53 58 58 56 42 46 49 55 56 56 50 56 58 55 48 46 46 44 49 48 45 44 46 39 47 46 43 39 35 38 32 39 45 48 50 52 50 51 51
53 53 53 55 54 53 55 57 57 55 25 48 47 57 52 52 51 50 54 54 47 47 47 45 45 45 43 46 48 44 46 44 41 36 33 33 33 39 40 45 50 50 50 50 51
52 52 53 54 55 55 56 56 55 39 25 40 46 46 47 46 46 49 51 55 52 48 44 45 46 47 48 45 47 47 44 41 35 35 29 33 35 36 41 44 46 48 49 50 50
51 52 50 54 51 56 57 53 37 30 44 38 40 44 43 42 43 44 44 44 41 37 37 40 41 44 47 44 45 43 41 30 28 25 27 30 31 38 45 46 47 48 48 47 48
52 52 50 54 54 56 53 43 31 38 39 43 42 42 40 44 41 42 41 40 43 40 36 35 34 43 47 46 42 41 41 31 22 22 28 32 31 41 45 47 47 48 46 47 48
52 47 46 52 53 53 47 33 34 39 44 41 42 38 38 41 40 40 38 40 44 43 41 35 37 42 43 45 48 41 37 41 30 16 23 31 37 47 45 47 47 48 48 48 49
43 43 45 52 53 51 40 34 39 46 45 44 37 40 34 38 39 38 37 42 42 45 44 42 35 38 41 45 43 42 45 35 30 21 18 29 30 38 43 45 46 47 47 49 49
41 39 46 50 52 45 34 35 41 47 48 43 40 38 37 37 38 37 39 41 44 44 47 42 40 34 39 38 38 39 37 37 38 32 23 20 31 42 45 46 44 46 48 49 50
38 32 46 49 41 40 36 41 45 44 47 44 45 43 39 40 37 38 39 40 43 44 41 43 39 30 35 38 40 39 40 39 32 27 27 29 32 44 45 46 48 48 48 46 47
34 34 44 47 35 35 37 41 44 42 42 42 41 43 43 41 37 40 38 42 44 44 43 44 36 25 31 35 37 37 38 40 38 33 26 26 32 44 43 43 44 43 43 45 45
34 28 34 40 40 37 35 37 38 44 43 44 43 43 39 36 40 38 39 41 43 44 45 46 37 35 32 33 37 34 35 37 39 30 32 32 36 41 42 42 44 43 43 43 42
35 29 32 27 34 33 35 36 37 36 42 44 40 40 38 34 34 34 38 41 42 44 42 43 33 35 36 38 38 35 35 36 35 35 34 35 34 41 43 44 41 40 42 43 43
33 29 33 29 32 36 34 33 34 37 39 38 38 41 41 36 37 34 39 38 39 40 40 40 32 34 31 34 35 32 35 35 35 35 35 35 37 47 44 43 41 41 42 42 42
34 36 33 32 29 31 32 32 34 38 40 41 41 39 38 41 42 41 44 42 41 38 35 34 30 27 26 29 31 27 31 33 33 35 37 34 41 41 38 40 40 40 40 40 41
MSLP
1013.09 1013.30 1013.45 1013.43 1013.72 1013.75 1013.95 1014.40 1014.15 1014.28 1014.15 1014.37 1014.29 1014.15 1014.16 1013.97 1013.84 1013.80 1013.24 1012.47 1012.39 1012.50 1012.50 1012.64 1012.87 1013.05 1013.32 1013.88 1014.37 1014.75 1015.84 1016.69 1016.14 1016.01 1015.27 1015.31 1015.47 1015.43 1015.51 1015.77 1016.11 1016.26 1016.52 1016.53 1016.71
1013.13 1013.18 1013.56 1013.72 1013.78 1013.75 1013.66 1013.88 1014.43 1014.32 1014.18 1014.28 1014.03 1014.13 1013.97 1013.83 1013.71 1013.19 1012.55 1012.44 1012.45 1012.58 1012.50 1012.72 1013.16 1013.26 1013.99 1014.21 1014.61 1015.06 1016.08 1015.91 1015.41 1015.13 1015.07 1015.08 1015.29 1015.53 1015.76 1015.97 1016.23 1016.34 1016.39 1016.51 1016.90
1013.11 1013.21 1013.38 1013.49 1013.67 1013.87 1014.02 1014.15 1014.36 1014.20 1014.22 1014.13 1014.28 1014.15 1014.07 1013.77 1013.48 1012.60 1012.37 1012.48 1012.57 1012.47 1012.48 1012.65 1013.10 1013.43 1014.08 1014.39 1014.71 1015.13 1015.58 1015.25 1015.05 1014.87 1014.83 1015.11 1015.36 1015.51 1015.85 1016.37 1016.09 1016.07 1016.53 1017.05 1017.30
1012.89 1013.27 1013.38 1013.68 1013.71 1013.72 1013.82 1013.95 1014.05 1014.13 1013.93 1014.01 1013.96 1013.72 1013.42 1013.49 1013.18 1012.47 1012.44 1012.54 1012.56 1012.47 1012.47 1012.83 1013.43 1013.88 1014.25 1014.63 1014.64 1015.08 1015.19 1015.02 1014.91 1014.92 1014.97 1015.27 1015.49 1015.78 1015.91 1015.42 1015.43 1015.63 1016.17 1017.06 1017.58
1012.71 1013.17 1013.51 1013.55 1013.75 1013.91 1014.07 1014.11 1013.98 1014.09 1013.77 1013.90 1013.85 1013.51 1013.11 1013.35 1012.98 1012.43 1012.53 1012.45 1012.65 1012.71 1012.65 1012.94 1013.54 1013.95 1014.16 1014.60 1014.83 1015.08 1014.97 1015.19 1014.94 1015.22 1015.30 1015.42 1015.65 1016.02 1015.63 1015.40 1015.54 1015.93 1016.61 1017.08 1017.30
1012.48 1012.97 1013.42 1013.28 1013.60 1013.83 1013.83 1013.62 1013.97 1013.98 1013.72 1013.92 1013.87 1013.22 1013.45 1013.55 1012.59 1012.40 1012.74 1012.63 1012.69 1012.77 1012.86 1012.95 1013.42 1013.55 1014.18 1014.54 1015.21 1015.20 1015.06 1015.34 1015.46 1015.55 1015.65 1015.92 1016.11 1016.24 1015.51 1015.43 1015.80 1016.32 1016.75 1017.11 1017.28
1012.48 1012.91 1013.25 1013.31 1013.40 1013.66 1013.69 1013.88 1013.72 1013.72 1013.60 1013.75 1013.37 1013.03 1013.09 1012.70 1012.56 1012.41 1012.53 1012.55 1012.70 1012.94 1012.92 1013.08 1013.22 1013.56 1014.08 1014.88 1015.44 1015.47 1015.78 1015.77 1015.74 1015.77 1015.96 1016.07 1016.57 1016.05 1015.77 1015.87 1016.17 1016.68 1016.96 1017.28 1017.22
1012.30 1012.77 1013.00 1013.34 1013.24 1013.60 1013.55 1013.32 1013.58 1013.62 1013.81 1013.38 1013.32 1013.12 1012.88 1012.46 1012.63 1012.62 1012.64 1012.90 1013.00 1012.81 1012.88 1013.05 1013.32 1013.99 1014.55 1015.17 1016.07 1016.33 1016.46 1016.65 1016.19 1016.11 1016.26 1016.40 1016.48 1015.82 1015.80 1015.98 1016.39 1016.74 1017.23 1017.42 1017.29
1012.22 1012.57 1012.82 1013.14 1012.90 1013.22 1013.38 1013.53 1013.67 1013.79 1013.42 1013.46 1013.29 1013.06 1012.81 1012.63 1012.83 1012.79 1012.66 1012.94 1013.03 1013.18 1013.15 1013.29 1013.63 1015.15 1015.59 1016.02 1017.58 1017.65 1017.39 1017.06 1016.70 1016.41 1016.57 1016.88 1016.89 1016.06 1016.08 1016.33 1016.69 1016.77 1017.01 1017.13 1016.96
1011.99 1012.46 1012.65 1012.75 1012.96 1013.09 1013.34 1013.11 1013.19 1013.20 1013.05 1013.16 1013.03 1013.19 1012.98 1012.82 1012.82 1012.70 1012.72 1012.90 1013.28 1013.59 1013.81 1014.34 1015.16 1016.13 1016.70 1016.87 1017.84 1018.03 1017.77 1017.23 1017.07 1016.87 1016.91 1017.25 1017.11 1016.75 1016.37 1016.69 1016.78 1016.83 1016.60 1016.69 1016.47
1011.64 1012.23 1012.50 1012.38 1012.92 1012.95 1013.15 1013.16 1013.80 1013.74 1013.32 1012.71 1012.51 1012.45 1012.71 1013.16 1013.04 1013.08 1012.98 1012.98 1013.42 1014.10 1014.78 1015.41 1015.98 1016.51 1016.74 1016.82 1017.18 1017.52 1017.50 1017.29 1017.11 1017.03 1017.36 1017.57 1017.61 1017.47 1016.66 1016.72 1016.67 1016.60 1016.24 1016.03 1015.75
1011.91 1012.32 1012.20 1012.26 1012.67 1012.95 1013.12 1013.09 1012.75 1012.59 1012.86 1012.78 1012.71 1012.63 1012.73 1012.88 1013.29 1013.30 1013.07 1013.43 1013.95 1014.94 1015.58 1016.22 1016.02 1016.22 1016.67 1017.10 1017.12 1017.55 1017.50 1017.54 1017.51 1017.58 1017.87 1018.03 1017.86 1017.50 1017.02 1016.28 1016.04 1016.00 1015.61 1015.52 1015.37
1012.02 1011.86 1012.43 1012.41 1012.61 1012.97 1012.87 1012.58 1012.26 1012.30 1012.84 1013.17 1012.73 1012.66 1012.60 1012.78 1013.04 1013.28 1013.36 1013.74 1014.42 1015.23 1015.84 1015.89 1015.78 1016.06 1016.66 1017.00 1017.40 1017.63 1017.77 1017.71 1018.15 1018.29 1018.59 1018.83 1018.40 1017.89 1016.47 1016.03 1015.31 1015.15 1015.43 1015.31 1015.15
1012.74 1012.70 1012.46 1012.55 1012.88 1012.53 1012.46 1012.46 1012.27 1012.46 1013.30 1013.02 1012.59 1011.88 1012.40 1012.71 1013.35 1013.31 1013.31 1013.59 1014.54 1015.16 1015.96 1016.09 1015.77 1016.06 1016.58 1016.88 1017.10 1017.64 1017.55 1017.74 1018.66 1019.08 1019.73 1019.87 1019.54 1018.23 1016.93 1016.24 1015.59 1015.20 1015.38 1015.35 1015.11
1012.47 1012.66 1012.67 1013.04 1012.38 1012.58 1012.50 1012.31 1012.43 1012.68 1013.23 1012.09 1012.24 1012.12 1012.33 1012.89 1013.17 1013.71 1013.44 1013.46 1014.33 1015.17 1015.92 1015.80 1015.95 1016.02 1016.49 1016.51 1016.82 1017.27 1017.69 1018.53 1019.30 1020.08 1020.42 1020.77 1020.58 1018.03 1017.20 1016.58 1015.95 1015.65 1015.72 1015.76 1015.63
1013.69 1013.14 1013.02 1012.65 1012.41 1012.44 1012.32 1012.38 1012.49 1013.48 1012.63 1012.37 1012.30 1012.29 1012.95 1013.17 1013.61 1013.88 1013.79 1013.78 1014.42 1015.30 1015.74 1015.89 1015.81 1015.92 1016.00 1016.51 1016.82 1017.40 1018.37 1019.62 1020.55 1021.19 1021.60 1020.74 1020.51 1018.85 1017.33 1016.43 1016.17 1016.15 1016.24 1016.27 1016.11
1013.31 1013.52 1013.42 1012.33 1012.31 1011.98 1012.24 1012.58 1013.40 1012.85 1012.04 1012.51 1012.53 1012.87 1013.14 1013.66 1014.15 1013.99 1014.27 1014.56 1014.76 1015.73 1016.10 1016.24 1016.09 1016.07 1016.08 1016.76 1017.29 1017.73 1019.00 1020.80 1021.98 1022.43 1022.33 1021.22 1020.91 1018.63 1016.73 1016.44 1016.46 1016.62 1016.85 1016.93 1016.76
1013.45 1013.26 1013.23 1012.32 1012.12 1012.05 1012.78 1013.35 1013.19 1011.82 1011.86 1012.17 1012.42 1013.16 1013.45 1013.51 1014.13 1014.27 1014.60 1015.11 1014.83 1014.85 1015.93 1016.23 1016.68 1016.13 1015.94 1016.24 1017.13 1018.02 1018.56 1020.18 1021.80 1023.00 1022.64 1021.64 1020.13 1017.50 1016.58 1016.63 1016.77 1016.97 1017.21 1017.31 1017.37
1013.59 1013.67 1013.10 1012.30 1012.15 1012.16 1012.65 1012.34 1011.95 1011.78 1011.63 1012.07 1012.59 1013.28 1013.72 1013.51 1013.70 1014.32 1014.69 1014.59 1014.22 1014.34 1014.72 1015.92 1016.07 1015.94 1015.94 1016.07 1016.47 1018.11 1018.71 1019.50 1021.38 1023.65 1023.08 1021.22 1019.48 1017.23 1016.57 1016.94 1017.34 1017.56 1017.48 1017.81 1017.72
1013.64 1013.69 1012.72 1012.23 1012.10 1012.11 1012.10 1012.34 1012.11 1011.73 1011.71 1011.70 1012.10 1012.52 1013.06 1013.41 1013.90 1014.21 1014.67 1013.93 1013.95 1013.95 1013.94 1014.82 1015.95 1016.34 1016.39 1016.39 1016.87 1016.96 1017.92 1019.59 1021.06 1022.60 1022.88 1021.23 1019.96 1018.03 1017.65 1017.74 1017.69 1017.83 1018.06 1018.03 1017.74
1013.71 1013.72 1012.40 1012.47 1011.86 1011.68 1012.20 1012.39 1012.21 1011.94 1011.88 1011.99 1012.00 1012.25 1012.56 1013.07 1013.48 1013.91 1013.97 1013.91 1013.67 1013.92 1014.14 1014.60 1015.21 1017.25 1017.08 1016.72 1016.72 1017.57 1017.90 1018.95 1019.80 1020.98 1021.56 1021.10 1019.35 1017.17 1017.52 1017.68 1017.88 1017.90 1018.33 1018.23 1018.20
1014.11 1014.20 1012.80 1012.40 1012.43 1011.66 1012.12 1012.26 1012.08 1012.06 1011.96 1011.96 1012.09 1012.30 1012.65 1012.94 1013.30 1013.81 1013.79 1013.82 1013.88 1013.84 1014.34 1014.56 1015.39 1017.01 1016.93 1016.73 1016.55 1016.59 1017.13 1017.77 1019.29 1020.77 1020.86 1020.37 1018.50 1017.29 1017.53 1017.50 1017.57 1018.17 1018.07 1018.31 1018.45
1014.37 1014.35 1013.13 1012.95 1012.71 1012.63 1012.59 1012.35 1011.99 1012.08 1012.27 1012.41 1012.62 1013.03 1013.20 1013.12 1013.74 1013.93 1014.05 1014.21 1014.08 1013.99 1013.96 1014.33 1015.20 1017.05 1017.56 1017.53 1017.13 1017.08 1017.46 1017.74 1018.42 1019.30 1019.88 1020.07 1018.32 1017.84 1017.89 1018.12 1018.09 1018.28 1018.49 1018.72 1018.91
1015.17 1015.04 1014.21 1013.57 1013.28 1012.81 1013.04 1012.63 1012.24 1012.08 1012.17 1012.66 1012.69 1013.18 1013.55 1013.86 1014.16 1014.32 1014.63 1014.72 1014.54 1014.51 1014.29 1014.35 1015.59 1016.28 1016.63 1016.95 1016.97 1017.84 1017.87 1018.10 1018.29 1019.24 1019.03 1018.34 1018.35 1018.20 1017.87 1017.88 1018.37 1018.71 1019.00 1019.15 1019.46
1015.37 1015.03 1014.80 1014.53 1013.95 1013.68 1013.53 1012.87 1012.48 1012.26 1012.29 1012.35 1012.74 1012.97 1013.61 1014.40 1014.67 1014.86 1015.17 1015.19 1015.15 1015.07 1015.14 1015.21 1016.79 1017.47 1017.67 1017.75 1017.81 1018.04 1018.14 1018.24 1018.43 1018.33 1018.65 1018.15 1018.34 1017.95 1017.94 1018.05 1018.45 1018.94 1018.88 1018.89 1019.23
1015.08 1015.31 1015.14 1014.84 1014.13 1013.86 1014.01 1013.47 1012.76 1012.52 1012.37 1012.40 1012.57 1012.91 1013.50 1014.08 1014.51 1015.11 1015.58 1015.91 1015.73 1015.97 1015.97 1016.59 1017.93 1018.80 1019.55 1019.51 1019.41 1019.17 1018.70 1018.57 1018.59 1018.53 1018.37 1018.30 1017.53 1017.61 1018.09 1018.63 1019.03 1019.28 1019.46 1019.71 1019.88
1015.00 1015.01 1015.07 1015.16 1014.95 1014.54 1013.91 1013.70 1013.24 1012.95 1012.65 1012.35 1012.54 1013.20 1013.67 1013.72 1014.19 1014.78 1014.67 1015.45 1015.78 1016.38 1017.27 1017.91 1018.89 1019.97 1021.13 1020.97 1020.60 1020.21 1018.38 1018.43 1018.56 1018.20 1018.10 1018.01 1017.18 1017.79 1018.73 1019.01 1019.37 1019.72 1019.77 1019.97 1020.21
Wind_Speed
9 9 7 6 6 6 6 6 4 4 3 3 4 4 6 5 1 2 5 4 2 4 3 3 2 2 4 3 2 3 6 2 4 5 3 5 3 1 1 5 1 4 6 3 8
9 8 8 8 6 6 4 3 5 3 2 3 4 4 6 5 2 3 1 2 2 2 4 5 3 4 3 1 2 6 5 9 3 4 4 5 2 6 3 3 2 2 0 3 9
10 9 8 6 6 6 6 5 5 2 2 3 5 4 4 2 2 6 3 2 1 1 3 4 5 3 3 1 1 3 5 5 3 2 3 5 0 4 6 3 7 9 6 6 6
10 9 8 7 5 5 4 3 3 3 3 5 6 6 3 1 5 1 3 2 1 2 3 5 4 4 4 4 2 5 1 5 4 1 3 5 3 2 6 8 2 9 7 8 10
10 8 8 7 5 5 5 4 3 4 3 7 6 6 3 1 5 1 2 2 2 3 5 5 4 5 7 4 3 3 4 3 3 1 2 2 2 5 7 9 1 5 8 12 12
10 8 7 7 6 5 4 4 4 3 4 6 6 4 3 5 1 4 4 3 3 3 3 5 7 5 5 4 4 5 4 3 3 3 2 3 2 1 3 4 4 5 10 10 11
11 9 8 7 7 6 5 4 5 5 8 7 6 1 2 4 1 2 4 2 3 3 5 1 3 3 4 5 2 4 4 3 3 4 3 3 4 9 4 3 2 7 7 8 11
11 10 8 8 6 5 5 6 4 6 8 7 2 1 3 1 1 2 2 2 2 3 3 3 4 5 4 4 7 4 5 2 3 4 1 4 8 4 3 3 6 5 7 8 11
10 9 8 8 5 4 5 6 6 7 4 5 1 2 2 1 2 2 2 5 3 3 4 3 6 4 4 7 5 6 3 3 6 5 2 3 6 4 1 5 6 6 7 8 9
10 9 9 7 5 4 6 5 3 2 1 2 1 3 0 4 2 2 1 5 4 4 5 6 6 4 4 5 6 6 3 3 4 4 3 3 9 9 7 5 9 9 9 9 9
10 9 9 7 4 2 2 4 3 2 0 4 4 4 4 0 1 1 1 4 4 7 5 2 5 7 9 7 3 6 4 4 2 1 3 5 6 12 10 7 10 11 10 11 11
8 8 6 5 3 0 2 3 4 4 3 3 0 3 4 4 4 1 2 5 4 5 4 5 4 7 5 5 4 3 3 2 2 1 3 3 9 10 9 11 8 10 11 10 8
12 12 5 3 2 0 4 3 1 1 3 3 4 4 4 6 4 9 6 4 5 6 5 7 3 9 6 5 6 3 5 4 5 1 3 4 9 7 6 5 7 7 6 7 10
11 10 8 8 2 2 2 1 1 1 4 5 6 6 4 5 3 0 4 5 2 8 8 4 3 6 4 5 6 5 7 5 4 4 3 2 6 7 5 11 6 9 6 8 7
16 13 12 8 2 3 3 2 2 3 2 3 3 2 3 6 7 1 1 5 8 7 7 7 8 6 4 6 6 6 4 4 3 4 3 4 2 9 3 6 6 8 7 7 8
11 13 17 3 1 2 2 2 2 5 10 4 3 6 7 2 2 3 3 4 4 5 2 4 1 4 7 3 3 9 7 7 5 3 2 6 6 7 3 3 3 4 7 8 9
12 13 12 4 3 4 0 3 3 7 2 6 6 6 3 6 4 3 7 7 8 6 5 1 1 0 3 7 4 4 7 2 4 3 6 1 3 11 5 1 3 4 6 7 8
12 14 5 3 1 5 4 3 6 5 6 3 5 6 7 6 1 4 8 9 5 5 5 8 4 8 5 7 10 7 8 8 8 5 4 3 6 6 2 3 4 4 4 7 9
9 2 3 3 3 2 8 8 7 5 5 8 5 5 5 5 6 5 7 8 10 10 8 7 5 1 2 4 8 6 4 5 8 3 4 4 6 6 3 6 5 7 9 9 8
2 3 2 3 2 3 3 5 4 2 1 3 6 6 7 8 6 7 9 5 5 10 1 8 4 1 2 3 3 5 8 4 3 3 3 3 3 6 7 7 5 9 8 7 7
2 2 2 4 3 2 3 4 3 3 3 1 3 4 5 8 6 6 8 0 3 6 5 6 5 0 4 7 10 3 3 4 5 5 7 2 7 7 8 8 8 8 6 6 8
2 2 3 4 1 1 5 3 6 4 1 3 3 4 4 6 5 5 9 2 1 4 10 7 6 5 7 2 3 3 7 7 6 5 2 4 7 2 9 8 8 5 3 3 5
1 2 3 2 5 2 1 5 4 4 4 4 3 3 4 3 5 4 4 1 2 4 8 8 4 4 2 2 2 5 3 4 5 4 8 7 6 2 5 6 4 3 4 5 6
1 1 4 2 1 3 4 4 5 3 5 7 4 5 4 5 8 4 3 1 1 2 6 6 4 6 10 2 5 5 3 2 5 4 5 8 5 8 7 6 4 5 5 6 5
1 3 1 4 5 3 2 4 8 5 2 6 3 6 8 3 3 2 3 4 3 3 3 4 4 4 5 4 3 4 6 7 7 6 9 2 5 4 7 7 2 3 4 6 7
3 3 0 1 2 9 3 5 8 6 8 5 5 8 14 8 6 6 7 4 4 4 3 4 4 3 2 4 2 3 6 7 5 4 5 4 15 9 2 6 5 5 6 6 6
1 2 2 1 2 7 8 3 4 4 3 2 6 6 4 6 4 2 5 5 6 9 5 5 7 4 4 1 4 8 8 9 5 5 7 10 7 5 4 5 5 5 3 1 3
Wind_Direction
213 205 212 210 205 199 186 194 200 225 210 229 257 277 289 311 238 191 217 202 132 142 115 99 84 70 59 83 54 116 67 152 199 156 219 147 144 164 46 116 216 186 159 234 143
218 201 207 198 203 197 191 209 224 216 215 256 285 292 311 318 186 233 237 156 123 162 113 128 140 106 46 71 29 85 113 203 206 185 180 169 131 167 144 136 246 277 271 104 135
209 201 193 198 200 192 187 197 238 219 268 282 271 281 302 260 109 229 180 185 180 85 116 115 106 102 103 46 185 140 177 192 193 173 145 151 199 169 129 243 219 205 183 159 152
184 194 185 181 200 204 209 216 240 276 301 292 298 311 341 127 167 276 180 185 131 99 100 115 107 103 119 162 188 118 198 169 171 143 112 156 110 243 194 215 252 222 178 159 178
166 164 181 182 188 205 224 229 237 278 308 303 304 337 109 95 254 135 142 126 125 125 149 132 137 144 147 164 107 141 183 128 135 122 107 101 204 239 248 250 49 98 158 184 194
157 171 190 175 194 232 241 271 276 275 304 298 306 345 155 198 146 133 145 123 151 131 148 135 176 185 109 144 154 183 138 137 158 169 183 171 249 24 296 273 210 155 196 201 201
162 181 194 198 195 226 245 238 287 315 298 286 319 74 140 224 5 145 148 138 144 158 136 134 132 103 121 110 175 114 103 8 211 167 198 143 263 237 276 319 251 221 232 230 231
169 178 193 213 204 221 248 281 279 292 278 276 344 124 208 353 290 152 139 84 95 61 108 109 91 98 74 106 26 65 47 114 299 133 99 108 266 273 355 172 257 240 244 250 248
173 185 192 206 202 233 258 266 265 257 257 254 121 128 237 28 158 182 146 141 99 45 54 77 71 82 47 92 31 14 196 182 306 194 117 126 268 264 221 17 309 269 249 241 250
172 184 187 185 198 239 271 260 258 259 29 275 81 86 6 211 165 135 31 123 110 100 56 53 58 79 43 94 193 195 204 217 241 216 147 158 260 285 276 294 273 283 272 254 249
164 180 186 169 195 238 17 87 71 359 58 189 205 126 131 276 356 72 147 93 84 59 131 18 107 190 198 170 138 147 155 173 235 164 145 237 267 278 290 295 275 268 260 257 254
114 184 180 163 170 326 120 188 197 150 183 210 52 77 129 176 105 266 130 112 120 137 117 45 207 212 120 151 135 134 121 250 310 8 152 349 277 260 268 261 237 257 266 263 278
50 49 35 166 201 196 195 196 117 109 115 213 189 167 182 141 177 189 137 134 123 124 169 150 229 141 146 142 145 200 170 191 208 37 31 1 305 320 292 264 267 256 267 274 264
32 34 6 333 141 181 199 201 62 220 71 226 204 239 133 153 165 348 174 130 104 162 148 214 177 135 156 173 136 172 201 153 161 95 225 3 278 303 300 295 313 316 313 325 327
14 9 353 299 161 172 159 242 296 58 182 199 158 66 124 163 140 262 260 58 152 160 128 235 170 142 151 193 162 199 115 129 93 97 83 317 57 272 342 315 331 10 41 8 13
353 358 342 236 344 138 204 161 67 73 240 163 118 159 126 100 53 99 117 57 133 112 68 180 46 154 180 90 145 143 83 53 56 88 312 225 152 284 223 189 0 353 2 5 11
355 336 315 313 188 142 89 29 101 182 165 189 173 167 130 153 123 131 158 166 157 122 169 67 197 319 134 84 44 90 85 358 350 5 222 92 100 242 262 298 292 332 23 18 12
329 323 270 258 34 139 105 140 183 200 206 135 120 125 170 143 140 135 130 187 250 104 122 152 232 165 181 170 168 186 156 159 195 196 250 110 228 246 124 90 57 65 54 45 30
335 277 296 277 199 232 168 203 195 195 154 142 86 125 180 206 136 133 191 195 193 182 150 149 244 54 104 145 145 191 188 157 106 28 61 223 286 327 88 79 53 78 57 39 23
17 279 235 343 172 225 124 190 215 204 259 179 163 168 170 178 147 168 167 190 206 184 211 198 130 51 139 105 35 155 158 87 5 143 253 274 254 229 149 136 120 62 54 14 359
47 296 312 323 215 86 154 168 218 268 209 103 143 148 170 168 153 192 194 124 175 187 155 142 112 167 120 210 160 137 171 61 119 150 169 185 253 227 135 148 115 94 42 15 358
74 242 318 331 174 306 147 175 160 162 195 96 39 22 168 159 140 190 189 197 76 160 174 186 127 160 198 246 217 180 185 153 144 223 234 152 258 55 134 138 114 128 94 348 340
37 282 321 342 198 182 301 160 187 131 227 133 131 32 359 93 120 117 122 126 7 156 156 180 192 88 48 4 341 192 166 148 114 82 198 143 249 187 124 140 155 156 329 341 12
112 224 329 1 359 137 158 215 164 182 155 164 144 95 53 42 21 97 113 43 24 92 63 84 106 179 206 155 132 169 151 115 146 167 177 220 140 239 283 340 56 60 50 56 43
176 244 244 201 207 114 176 200 186 183 224 175 194 184 153 156 116 103 349 5 35 0 50 94 86 41 20 96 90 160 165 170 182 195 185 157 200 247 302 318 51 98 79 58 31
157 165 109 246 301 177 181 217 206 185 164 212 188 174 175 168 166 181 172 185 257 15 75 18 125 113 95 336 5 271 238 216 197 201 257 271 271 206 147 102 41 48 58 44 7
216 2 99 10 129 173 211 202 215 162 230 258 166 141 195 149 118 137 141 150 169 157 143 138 138 125 164 275 74 297 217 208 192 190 170 215 253 143 148 141 151 148 127 9 349